Visibility
11.5 15.0 9.6 2.8 6.0 9.2 3.8 3.1 3.9 7.2 7.0 6.9 9.3 15.0 15.0 12.4 15.0 15.0 0.9 15.0 15.0 4.2 0.2 2.0 4.5 1.3 9.6 13.9 4.2 15.0 15.0 5.9 2.7 0.5 0.7 14.9 0.3 0.3 0.3 2.4 2.7 4.1 3.5 4.6 5.2 0.6 0.5 4.5 0.4 0.1 0.1 0.1 0.1 0.3
8.7 7.0 6.1 5.2 4.9 3.6 3.5 3.7 5.1 4.8 5.4 8.8 11.1 14.8 10.3 13.0 15.0 15.0 2.3 15.0 15.0 12.7 0.3 15.0 15.0 14.4 3.1 0.8 1.5 9.2 3.3 1.5 0.2 0.8 0.3 0.3 0.5 9.6 2.2 0.4 6.2 1.3 3.5 3.2 2.6 1.5 0.3 0.2 0.2 0.1 0.2 0.2 1.1 3.0
5.3 4.2 3.0 4.4 7.4 8.0 5.5 7.3 9.1 14.8 15.0 15.0 14.9 11.6 11.1 9.7 15.0 15.0 15.0 15.0 15.0 6.7 0.5 3.7 0.5 0.9 15.0 15.0 0.4 3.6 13.7 0.3 0.2 0.2 0.1 0.2 0.3 0.8 1.8 1.8 0.8 3.1 2.0 0.9 1.1 1.8 6.5 0.2 2.4 2.2 1.3 1.3 3.4 7.7
5.3 6.1 6.0 5.5 6.3 9.9 13.5 14.7 14.5 14.6 15.0 15.0 10.2 5.3 15.0 15.0 15.0 15.0 15.0 15.0 15.0 15.0 13.9 0.2 15.0 15.0 15.0 15.0 15.0 7.5 1.2 8.1 0.2 0.2 0.1 0.1 0.4 3.3 0.8 1.6 0.7 1.5 2.3 1.9 0.8 1.4 11.6 0.2 15.0 0.4 2.0 12.3 12.3 15.0
5.5 5.5 6.9 8.7 14.9 15.0 15.0 15.0 15.0 15.0 15.0 5.8 12.3 15.0 15.0 15.0 15.0 15.0 15.0 15.0 15.0 15.0 5.0 0.5 15.0 15.0 15.0 15.0 15.0 15.0 7.2 1.0 0.3 0.3 0.2 0.2 0.5 4.6 1.4 4.8 3.5 0.9 1.8 1.1 1.1 0.4 0.5 13.9 14.2 7.2 1.6 7.8 15.0 2.7
15.0 14.9 14.9 14.8 14.1 13.8 14.9 15.0 15.0 11.9 3.1 11.7 15.0 15.0 15.0 15.0 15.0 15.0 15.0 15.0 15.0 15.0 14.8 4.9 12.0 15.0 15.0 15.0 15.0 15.0 15.0 6.0 0.7 0.6 0.3 0.4 0.4 0.5 0.3 0.6 0.6 0.7 0.4 0.3 2.9 0.8 1.8 15.0 15.0 12.5 2.6 4.9 14.6 0.7
15.0 15.0 15.0 15.0 15.0 15.0 15.0 15.0 15.0 2.9 6.1 15.0 15.0 15.0 15.0 15.0 15.0 2.7 0.4 15.0 15.0 15.0 15.0 1.6 13.7 15.0 15.0 15.0 15.0 13.7 15.0 4.9 15.0 5.0 2.7 1.3 1.7 4.8 0.9 1.1 10.4 15.0 15.0 15.0 5.1 0.2 11.8 15.0 8.1 15.0 5.8 14.5 6.5 13.2
15.0 15.0 15.0 15.0 15.0 15.0 15.0 7.1 4.8 13.7 15.0 15.0 15.0 15.0 15.0 15.0 15.0 15.0 15.0 15.0 15.0 15.0 15.0 15.0 15.0 15.0 15.0 15.0 11.7 15.0 15.0 15.0 15.0 5.7 13.9 15.0 15.0 15.0 5.1 15.0 15.0 15.0 15.0 15.0 14.8 14.7 7.9 14.4 15.0 11.3 15.0 11.7 15.0 15.0
15.0 15.0 15.0 15.0 15.0 2.6 2.0 14.5 15.0 15.0 15.0 15.0 15.0 15.0 15.0 15.0 15.0 15.0 15.0 15.0 15.0 15.0 15.0 15.0 1.7 7.9 15.0 15.0 13.1 15.0 15.0 10.1 15.0 15.0 15.0 15.0 15.0 10.6 15.0 1.6 5.4 15.0 0.7 0.5 5.4 15.0 15.0 13.6 15.0 15.0 15.0 15.0 9.3 11.9
15.0 15.0 15.0 15.0 2.4 3.8 14.5 15.0 15.0 15.0 15.0 15.0 15.0 15.0 15.0 15.0 15.0 15.0 15.0 15.0 15.0 15.0 15.0 10.1 15.0 6.5 13.0 15.0 13.4 15.0 15.0 15.0 4.0 4.8 15.0 15.0 6.6 15.0 15.0 15.0 15.0 15.0 15.0 2.5 0.4 4.0 9.2 9.4 14.4 7.2 3.7 7.4 4.1 2.6
4.2 15.0 15.0 15.0 1.7 7.5 15.0 15.0 15.0 15.0 15.0 15.0 15.0 15.0 15.0 15.0 15.0 15.0 15.0 15.0 15.0 15.0 14.4 8.8 9.0 1.3 15.0 1.0 1.3 7.4 12.0 10.1 12.5 15.0 15.0 15.0 15.0 15.0 15.0 15.0 15.0 15.0 15.0 15.0 5.3 1.2 1.7 0.9 0.5 0.8 2.2 12.6 14.6 10.9
1.6 7.3 15.0 1.8 3.1 9.7 15.0 15.0 15.0 15.0 15.0 15.0 15.0 15.0 15.0 15.0 15.0 15.0 15.0 15.0 15.0 11.2 15.0 1.6 1.6 5.8 8.0 12.9 15.0 15.0 15.0 15.0 13.7 15.0 15.0 15.0 15.0 15.0 15.0 15.0 15.0 15.0 15.0 15.0 15.0 7.2 12.9 10.7 11.1 1.9 1.5 5.3 14.2 15.0
2.1 13.5 5.0 0.4 9.3 15.0 15.0 15.0 15.0 15.0 15.0 15.0 15.0 15.0 15.0 15.0 12.9 15.0 4.1 15.0 15.0 15.0 14.4 1.0 1.0 5.3 15.0 15.0 15.0 15.0 15.0 15.0 15.0 15.0 15.0 15.0 15.0 15.0 15.0 15.0 15.0 15.0 15.0 15.0 15.0 15.0 15.0 15.0 15.0 10.7 4.0 15.0 15.0 6.4
5.2 5.7 14.5 15.0 15.0 15.0 15.0 15.0 15.0 15.0 15.0 15.0 15.0 14.6 10.7 6.9 3.8 5.2 3.0 1.7 14.1 4.3 1.3 0.8 1.8 15.0 15.0 15.0 14.9 15.0 15.0 15.0 15.0 15.0 15.0 15.0 15.0 15.0 15.0 15.0 15.0 12.3 15.0 15.0 15.0 15.0 15.0 15.0 13.7 15.0 15.0 15.0 7.1 2.6
14.1 15.0 15.0 15.0 15.0 15.0 15.0 15.0 15.0 15.0 15.0 13.7 15.0 0.9 7.2 10.7 15.0 15.0 8.0 1.6 4.7 1.9 1.5 9.7 15.0 15.0 15.0 15.0 15.0 15.0 15.0 15.0 15.0 15.0 15.0 15.0 15.0 15.0 15.0 15.0 15.0 15.0 15.0 15.0 15.0 15.0 12.8 10.7 2.9 2.7 14.8 12.6 4.2 2.0
15.0 15.0 15.0 15.0 15.0 15.0 15.0 15.0 15.0 15.0 15.0 15.0 9.5 15.0 15.0 15.0 15.0 15.0 15.0 15.0 15.0 1.7 13.3 15.0 15.0 15.0 14.7 15.0 15.0 15.0 15.0 15.0 15.0 15.0 15.0 15.0 15.0 15.0 15.0 15.0 15.0 15.0 13.9 6.6 15.0 15.0 12.8 15.0 7.0 6.7 14.4 8.6 5.8 9.7
15.0 15.0 15.0 15.0 15.0 15.0 15.0 15.0 15.0 15.0 15.0 15.0 15.0 15.0 15.0 13.3 14.1 15.0 9.0 15.0 15.0 10.9 15.0 15.0 15.0 15.0 15.0 15.0 15.0 15.0 6.9 15.0 15.0 10.1 15.0 15.0 3.8 4.3 3.6 1.0 4.7 1.9 0.7 2.3 1.9 2.8 2.1 2.0 0.5 0.3 0.4 14.2 15.0 15.0
15.0 15.0 15.0 15.0 15.0 15.0 15.0 15.0 15.0 15.0 12.3 8.4 15.0 15.0 15.0 15.0 15.0 15.0 15.0 15.0 15.0 15.0 15.0 15.0 15.0 15.0 14.2 0.4 0.2 0.6 0.4 2.7 8.2 1.8 1.1 3.6 1.2 1.0 3.4 1.5 1.4 0.7 0.2 0.4 0.5 0.7 3.1 1.2 0.4 2.6 13.1 14.9 5.8 4.7
15.0 15.0 15.0 15.0 15.0 15.0 15.0 15.0 15.0 12.2 13.2 15.0 15.0 15.0 11.6 15.0 15.0 15.0 15.0 15.0 15.0 15.0 15.0 15.0 11.5 0.7 0.3 0.4 0.4 2.5 9.5 2.0 0.4 3.8 15.0 15.0 15.0 6.6 0.5 0.4 3.2 3.0 1.5 0.5 0.2 0.1 0.3 3.0 0.8 0.4 0.8 0.9 0.4 11.0
15.0 15.0 15.0 15.0 15.0 15.0 15.0 15.0 15.0 15.0 15.0 15.0 15.0 15.0 15.0 15.0 15.0 15.0 15.0 15.0 15.0 15.0 14.8 0.5 0.2 0.1 0.1 0.5 0.2 0.1 0.3 0.5 0.2 0.3 12.3 15.0 15.0 15.0 5.5 0.2 0.1 0.2 0.2 1.6 2.3 2.7 0.2 0.3 4.9 0.3 0.2 0.1 0.1 0.2
15.0 15.0 15.0 15.0 15.0 15.0 10.9 11.5 14.9 10.5 15.0 15.0 15.0 15.0 15.0 15.0 15.0 15.0 15.0 15.0 15.0 0.3 0.2 0.1 0.1 0.6 0.6 0.1 0.1 0.1 0.2 0.1 0.1 0.1 0.1 0.1 1.0 5.5 12.3 8.5 2.0 1.7 0.2 0.2 0.3 1.0 2.9 0.5 1.1 1.0 0.5 1.3 2.1 0.6
15.0 15.0 15.0 15.0 15.0 15.0 12.5 15.0 15.0 15.0 15.0 15.0 15.0 15.0 14.7 15.0 15.0 15.0 1.7 0.6 0.1 0.1 0.1 0.1 0.2 0.1 0.2 0.1 0.1 0.1 0.1 0.2 0.3 0.2 0.3 0.1 0.1 0.2 0.5 0.6 0.1 0.4 1.1 0.1 0.1 0.2 0.4 1.1 0.4 0.2 0.1 0.1 0.3 0.3
15.0 15.0 15.0 15.0 15.0 15.0 15.0 15.0 15.0 15.0 15.0 15.0 15.0 15.0 15.0 11.8 14.4 7.3 0.5 0.1 0.1 0.1 0.1 0.1 0.1 0.5 0.4 14.0 15.0 11.2 1.6 0.1 0.1 0.1 0.2 0.3 0.2 0.1 0.1 0.2 0.1 0.1 0.2 2.6 0.9 0.1 0.1 0.7 0.4 0.3 0.2 0.1 0.2 0.2
15.0 15.0 15.0 15.0 15.0 15.0 15.0 15.0 15.0 15.0 15.0 15.0 15.0 15.0 15.0 11.3 15.0 3.1 0.3 0.1 0.1 0.1 0.4 0.2 1.8 5.8 15.0 15.0 11.2 1.0 0.3 0.2 0.4 1.4 0.3 0.1 0.6 3.0 14.1 12.6 12.0 2.2 0.5 0.3 0.7 0.4 0.5 0.3 0.4 0.4 0.4 0.2 0.4 0.7
15.0 15.0 15.0 15.0 15.0 15.0 15.0 15.0 15.0 15.0 15.0 5.7 14.8 15.0 15.0 14.8 14.8 2.4 0.2 0.3 2.5 7.9 3.2 6.4 14.9 6.8 0.7 4.9 14.7 15.0 15.0 1.6 0.2 0.3 13.0 0.1 0.1 3.0 14.7 15.0 15.0 15.0 15.0 0.1 0.3 0.7 2.1 1.4 2.3 0.6 0.6 0.3 0.1 0.1
10.3 9.3 6.1 6.6 15.0 15.0 15.0 15.0 5.1 11.7 15.0 14.6 15.0 15.0 12.3 15.0 2.5 0.2 0.1 0.2 0.2 0.1 0.1 0.1 0.1 0.4 11.1 11.5 0.4 1.5 2.7 5.3 0.4 0.7 15.0 15.0 0.5 0.1 0.1 0.2 0.4 0.7 0.3 0.1 0.1 0.1 0.1 1.1 0.2 0.2 0.2 0.3 0.6 0.5
15.0 15.0 15.0 15.0 15.0 15.0 15.0 15.0 15.0 15.0 15.0 13.2 15.0 8.3 5.6 4.7 4.6 9.8 14.3 0.3 0.1 0.1 0.1 0.1 0.1 0.3 0.3 0.9 9.1 15.0 15.0 10.6 2.2 1.7 12.2 15.0 15.0 15.0 0.2 0.1 0.1 0.1 0.1 0.1 0.1 0.1 0.2 0.1 0.2 0.5 0.3 1.8 1.6 0.2
15.0 15.0 15.0 15.0 15.0 14.8 15.0 15.0 15.0 15.0 15.0 15.0 8.0 8.4 7.3 1.3 0.5 1.4 0.9 4.2 3.7 13.4 13.2 13.6 8.4 1.6 0.9 9.9 13.4 7.5 14.8 15.0 15.0 15.0 15.0 15.0 15.0 15.0 14.0 0.6 0.2 0.3 0.6 0.2 0.1 0.1 0.1 0.1 0.8 0.2 0.7 1.3 0.9 0.7
15.0 14.6 15.0 15.0 15.0 15.0 15.0 15.0 15.0 15.0 15.0 15.0 15.0 15.0 15.0 15.0 15.0 14.4 15.0 15.0 15.0 15.0 14.4 5.3 11.3 15.0 15.0 15.0 15.0 15.0 15.0 13.9 0.3 0.6 2.8 5.0 13.8 14.1 11.9 0.6 1.1 1.6 1.0 0.1 0.7 0.4 0.1 0.3 0.7 0.6 0.9 2.8 4.7 0.9
15.0 6.3 15.0 11.4 15.0 15.0 15.0 15.0 15.0 15.0 15.0 15.0 14.7 15.0 15.0 15.0 15.0 15.0 15.0 15.0 15.0 15.0 15.0 13.2 2.6 0.5 2.5 2.8 5.1 13.1 15.0 15.0 3.3 0.1 0.1 0.3 0.2 0.3 0.6 0.2 2.1 3.9 0.3 0.2 0.2 0.2 0.5 0.3 2.8 11.1 8.6 7.4 2.4 0.8
15.0 15.0 15.0 15.0 15.0 15.0 15.0 15.0 12.2 15.0 14.8 15.0 14.2 5.2 15.0 15.0 15.0 15.0 15.0 15.0 15.0 15.0 15.0 15.0 15.0 15.0 15.0 15.0 2.3 0.7 4.1 15.0 15.0 11.2 0.9 0.2 0.2 0.6 0.5 0.9 15.0 2.3 0.3 0.2 0.3 0.2 0.1 0.1 0.2 0.2 1.2 1.0 0.6 0.7
15.0 15.0 15.0 15.0 15.0 15.0 15.0 15.0 15.0 15.0 15.0 15.0 15.0 4.4 15.0 15.0 15.0 15.0 15.0 15.0 15.0 15.0 14.6 15.0 15.0 15.0 15.0 15.0 15.0 11.8 10.3 10.5 15.0 0.8 4.8 0.5 14.4 15.0 13.0 15.0 11.6 3.2 1.4 0.5 0.8 0.3 0.2 0.1 0.1 0.1 0.2 0.4 0.4 0.4
15.0 15.0 15.0 15.0 15.0 15.0 15.0 15.0 15.0 15.0 15.0 15.0 15.0 15.0 15.0 15.0 15.0 15.0 15.0 15.0 15.0 15.0 15.0 15.0 15.0 15.0 15.0 15.0 15.0 14.6 12.9 15.0 15.0 15.0 15.0 15.0 15.0 15.0 15.0 15.0 15.0 15.0 2.2 1.1 0.9 0.3 0.1 0.1 0.1 0.2 0.3 0.3 0.6 0.3